Location: Betpouey
(42.8833°N, 0.0333°E)
Time: 06:17:18
(UTC+00:00)

Meteor 2-13 Rocket - Pass Details

Date: 29 June 2021
Orbit: 935 x 958 km, 82.5° (Epoch: 26 July)

Event Time Altitude Azimuth Distance (km) Brightness Sun altitude
Exits shadow 01:09:40 15° 259° (W) 2,341 6.2 -22.1°
Maximum altitude 01:12:34 20° 293° (WNW) 2,043 6.2 -22.0°
Drops below altitude 10° 01:17:01 10° 339° (NNW) 2,695 7.5 -21.7°
Sets 01:20:16 0° 356° (N) 3,643 8.7 -21.6°
